Location: Chandrammap?lem
(16.9200°N, 81.0051°E)
Time: 14:20:43
(UTC+00:00)

GPS 2-14 Rocket1 - Pass Details

Date: 29 May 2024
Orbit: 353 x 376 km, 20.7° (Epoch: 16 June)

Event Time Altitude Azimuth Distance (km) Brightness Sun altitude
Rises 13:56:59 0° 279° (W) 2,173 7.4 -12.0°
Reaches altitude 10° 13:59:05 10° 274° (W) 1,321 5.9 -12.5°
Maximum altitude 14:02:01 52° 196° (SSW) 444 2.2 -13.1°
Enters shadow 14:03:19 27° 132° (SE) 705 2.8 -13.4°
